"Time","Temp","Dewpoint","Humidity","Pressure","Direction","Speed","Gust","Precip","PrecipRate"
"00:04:56","49.9","30.1","46.4","29.95","300","4.7","12","0.00","0.00"
"00:09:59","49.8","29.7","45.9","29.95","315","6.5","21","0.00","0.00"
"00:14:59","49.8","30.1","46.4","29.95","296","4.3","11.5","0.00","0.00"
"00:19:58","49.6","29.6","45.8","29.95","315","6.4","14","0.00","0.00"
"00:24:57","49.7","29.8","46.2","29.95","290","5","12","0.00","0.00"
"00:29:56","49.6","29.6","46","29.95","291","5","12","0.00","0.00"
"00:34:59","49.5","29.8","46.4","29.95","312","4.2","11.5","0.00","0.00"
"00:39:56","49.4","30.1","47.3","29.95","280","3.9","10.4","0.00","0.00"
"00:44:56","49.4","29.8","46.6","29.95","315","5.6","11.5","0.00","0.00"
"00:49:59","49.4","29.7","46.5","29.95","298","4.3","16.1","0.00","0.00"
"00:54:59","49.4","29.5","46.1","29.95","354","5","19","0.00","0.00"
"00:59:58","49.5","29.7","46.3","29.97","330","2.9","17.3","0.00","0.00"
"01:04:57","49.3","29.6","46.4","29.97","322","3.7","9.2","0.00","0.00"
"01:09:57","49.2","29.7","46.9","29.97","320","2","7","0.00","0.00"
"01:14:59","49.1","29.7","47","29.97","321","2.5","8","0.00","0.00"
"01:19:58","48.9","29.6","47.1","29.97","312","4.1","11","0.00","0.00"
"01:24:58","48.8","29.5","47.1","29.97","331","3.1","10.4","0.00","0.00"
"01:29:57","48.8","29.6","47.4","29.97","295","3.6","10.4","0.00","0.00"
"01:34:57","48.7","29.8","47.8","29.97","290","4.7","12","0.00","0.00"
"01:39:58","48.5","29.8","48.3","29.97","336","5.2","15","0.00","0.00"
"01:44:58","48.5","29.3","47.2","29.97","331","5.3","15","0.00","0.00"
"01:49:57","48.5","29.4","47.4","29.97","325","6.2","14","0.00","0.00"
"01:54:56","48.5","29.3","47.3","29.97","282","6.5","15","0.00","0.00"
"01:59:56","48.4","29.4","47.7","29.97","321","7.1","15","0.00","0.00"
"02:04:58","48.4","28.9","46.7","29.97","321","7.1","14","0.00","0.00"
"02:09:58","48.3","28.9","46.7","29.97","323","7.5","17","0.00","0.00"
"02:14:59","48.3","28.2","45.5","29.97","300","7.1","17.3","0.00","0.00"
"02:19:58","48.3","27.9","45","29.97","299","7.7","15","0.00","0.00"
"02:24:58","48.3","27.3","43.9","29.97","326","9.1","19.6","0.00","0.00"
"02:29:57","48.2","27.6","44.7","29.97","294","7.3","15","0.00","0.00"
"02:34:57","48","27","44","29.97","317","7.6","16.1","0.00","0.00"
"02:39:59","48","26.8","43.5","29.97","318","8.1","16.1","0.00","0.00"
"02:44:58","47.9","26.5","43.1","29.98","316","9.2","25","0.00","0.00"
"02:49:58","47.9","26.1","42.4","29.98","312","9.2","25.3","0.01","0.00"
"02:54:57","47.8","26.4","42.9","29.98","327","8.2","19.6","0.01","0.01"
"02:59:57","47.6","26.3","43.1","29.98","307","7","13","0.01","0.01"
"03:04:59","47.5","26.2","43.2","29.98","309","7.5","18","0.01","0.01"
"03:09:59","47.3","26.2","43.3","29.98","329","7.3","16.1","0.01","0.01"
"03:14:57","47.2","26.1","43.5","29.98","306","6.8","18","0.01","0.01"
"03:19:56","47","26","43.6","29.97","313","8.5","19.6","0.01","0.01"
"03:24:56","47.1","26","43.5","29.97","340","7.1","17.3","0.01","0.01"
"03:29:56","47","25.8","43.3","29.98","296","7.7","21","0.01","0.01"
"03:34:56","46.9","25.8","43.5","29.98","300","6.5","12.7","0.01","0.01"
"03:39:57","46.9","25.9","43.7","29.98","320","5.9","12","0.01","0.01"
"03:44:57","46.8","26","44","29.98","323","7.9","18","0.01","0.01"
"03:49:56","46.7","25.9","44.1","29.98","325","6.4","17.3","0.01","0.01"
"03:54:59","46.7","25.8","43.9","29.98","342","5.9","17.3","0.01","0.00"
"03:59:59","46.6","25.6","43.5","29.98","313","7.7","20","0.01","0.00"
"04:04:57","46.7","26","44.1","29.98","334","5.1","20","0.01","0.00"
"04:09:58","46.5","25.6","43.8","29.98","325","6.6","19.6","0.01","0.00"
"04:14:59","46.4","25.6","44","29.99","327","4.9","12","0.01","0.00"
"04:19:59","46.3","25.9","44.7","29.99","318","5.3","15","0.01","0.00"
"04:24:56","46.1","25.8","44.8","29.99","335","5.2","15","0.01","0.00"
"04:29:59","46","25.8","44.9","30.00","332","4.7","13","0.01","0.00"
"04:34:59","46","25.7","44.9","30.00","307","6.4","14","0.01","0.00"
"04:39:56","46.1","25.8","44.9","30.00","321","7.3","15","0.01","0.00"
"04:44:56","45.9","25.9","45.2","30.00","315","6.7","14","0.01","0.00"
"04:49:58","45.9","25.9","45.2","29.98","326","8.1","22","0.01","0.00"
"04:54:57","46","25.8","45","29.98","333","7","14","0.01","0.00"
"04:59:56","45.9","25.7","45","29.98","315","7.1","17.3","0.01","0.00"
"05:04:56","45.9","25.6","44.8","29.98","326","8","15","0.01","0.00"
"05:09:56","45.9","25.7","45","29.98","332","7.1","15","0.01","0.00"
"05:14:57","45.8","25.6","45","30.00","332","5.4","13","0.01","0.00"
"05:19:57","45.7","25.7","45.3","30.00","323","5.4","16.1","0.01","0.00"
"05:24:56","45.6","25.6","45.2","30.00","335","7.1","17.3","0.01","0.00"
"05:29:57","45.6","25.8","45.7","30.01","318","6.1","12","0.01","0.00"
"05:34:56","45.6","25.8","45.6","30.01","309","4.7","13","0.01","0.00"
"05:39:58","45.4","25.8","45.9","30.01","324","6.5","18.4","0.01","0.00"
"05:44:57","45.5","25.6","45.4","30.01","265","8.5","18.4","0.01","0.00"
"05:49:57","45.6","25.6","45.2","30.01","329","7.3","18.4","0.01","0.00"
"05:54:56","45.6","25.5","45","30.01","320","6.4","15","0.01","0.00"
"05:59:56","45.5","25.8","45.8","30.02","309","4.9","13","0.01","0.00"
"06:04:58","45.4","25.8","46","30.02","335","5","15","0.01","0.00"
"06:09:56","45.3","25.7","46","30.02","307","3.8","10.4","0.01","0.00"
"06:14:58","45.1","26.2","47.3","30.03","285","2.4","11","0.01","0.00"
"06:19:58","44.9","25.8","46.9","30.03","333","5.2","11.5","0.01","0.00"
"06:24:58","44.9","25.9","47","30.03","336","2.9","9","0.01","0.00"
"06:29:58","44.9","25.9","47","30.04","314","3","9.2","0.01","0.00"
"06:34:58","44.9","25.6","46.5","30.04","337","2.8","7","0.01","0.00"
"06:39:56","44.9","25.7","46.7","30.04","322","3.1","11.5","0.01","0.00"
"06:44:56","44.9","25.8","46.7","30.05","330","3.8","10.4","0.01","0.00"
"06:49:59","44.9","26.2","47.6","30.05","352","2.4","9.2","0.01","0.00"
"06:54:58","44.8","26.3","48","30.05","331","2","7","0.01","0.00"
"06:59:57","44.8","26.4","48.2","30.06","358","2.2","7","0.01","0.00"
"07:04:56","44.9","26.2","47.5","30.06","321","2.8","9.2","0.01","0.00"
"07:09:57","45.3","26.7","47.8","30.06","301","1.3","3.5","0.01","0.00"
"07:14:58","45.8","26.7","47","30.08","340","2.7","13","0.01","0.00"
"07:19:56","46.2","27","46.8","30.08","336","1.8","9","0.01","0.00"
"07:22:54","46.6","27.2","46.6","30.08","349","3.3","11.5","0.01","0.00"
"08:08:11","48.1","27.2","43.9","30.10","332","5.6","11.5","0.01","0.00"
"08:14:59","48.5","27.8","44.5","30.10","338","4","12","0.01","0.00"
"08:19:56","48.6","27.2","43.3","30.10","317","4.5","11.5","0.01","0.00"
"08:24:59","48.9","27.8","43.8","30.10","308","5.5","13","0.01","0.00"
"08:29:58","49","28.1","44","30.11","301","5.4","16","0.01","0.00"
"08:34:56","49.3","27.6","42.8","30.11","292","5.8","16.1","0.01","0.00"
"08:39:57","49.6","27.5","42.2","30.11","323","6.2","15","0.01","0.00"
"08:44:56","49.8","28.5","43.6","30.11","299","4.2","15","0.01","0.00"
"08:49:59","50.1","27.4","41.2","30.11","307","4.9","12","0.01","0.00"
"08:54:57","50.3","27.3","40.7","30.11","190","5.7","13","0.01","0.00"
"08:59:55","50.7","28.3","41.9","30.11","307","3","9","0.01","0.00"
"09:04:59","51","27.5","40.1","30.11","293","4.6","13","0.01","0.00"
"09:09:59","51.1","27.1","39.1","30.11","307","4","12","0.01","0.00"
"09:14:59","51.5","27.7","39.6","30.11","335","3.7","15","0.01","0.00"
"09:19:58","51.8","27.1","38.2","30.11","349","5.8","14","0.01","0.00"
"09:24:56","52.2","28.7","40.3","30.11","321","3.3","12","0.01","0.00"
"09:29:58","52.4","27.9","38.7","30.11","317","4.4","11.5","0.01","0.00"
"09:34:57","52.7","27.9","38.3","30.11","329","5.8","13","0.01","0.00"
"09:39:57","52.6","27.1","37.1","30.11","332","6.5","14","0.01","0.00"
"09:44:59","52.6","27.1","37.2","30.11","306","5.5","14","0.01","0.00"
"09:49:58","53","29.2","39.8","30.10","331","4.4","13","0.01","0.00"
"09:54:56","53.6","28.5","37.8","30.10","328","4.8","12.7","0.01","0.00"
"09:59:58","53.7","27","35.5","30.11","317","5.9","13","0.01","0.00"
"10:04:58","53.8","29.8","39.7","30.11","286","3.4","9.2","0.01","0.00"
"10:09:58","54.2","29.3","38.3","30.11","333","4.6","13","0.01","0.00"
"10:14:58","54.4","30","39","30.11","275","3.7","13","0.01","0.00"
"10:19:56","54.5","29","37.4","30.11","283","3.6","9.2","0.01","0.00"
"10:24:59","54.6","29.7","38.5","30.11","256","3.7","9.2","0.01","0.00"
"10:29:57","54.8","28.6","36.4","30.11","300","3.5","11.5","0.01","0.00"
"10:34:56","55.1","29.3","37","30.10","323","4.8","10.4","0.01","0.00"
"10:39:56","55.4","29.1","36.4","30.10","317","3.9","15","0.01","0.00"
"10:44:59","55.8","29.3","36.1","30.10","346","5.1","15","0.01","0.00"
"10:49:57","56.4","30","36.5","30.10","333","3.5","10.4","0.01","0.00"
"10:54:56","56.7","29.2","34.9","30.10","335","4.8","12","0.01","0.00"
"10:59:58","56.7","29.3","34.9","30.11","333","3.6","12","0.01","0.00"
"11:04:57","56.8","29","34.4","30.11","313","4.6","11.5","0.01","0.00"
"11:09:57","56.5","27.7","33","30.11","327","5.2","16.1","0.01","0.00"
"11:14:57","56.4","29.1","35.1","30.11","301","4.4","12","0.01","0.00"
"11:19:56","56.8","29.5","35.2","30.11","322","4.1","13","0.01","0.00"
"11:24:58","57.2","30.4","35.9","30.11","325","4.2","11","0.01","0.00"
"11:29:56","57.6","29.5","34.1","30.11","331","4.6","11","0.01","0.00"
"11:34:58","58","30.1","34.4","30.10","305","4.5","12","0.01","0.00"
"11:39:59","57.8","30.2","34.8","30.10","316","5.3","15","0.01","0.00"
"11:44:57","57.8","29.3","33.5","30.10","9","7.1","14","0.01","0.00"
"11:49:56","58.3","32","36.9","30.10","275","3.4","10.4","0.01","0.00"
"11:54:59","58.9","31.9","35.9","30.10","324","4.4","12","0.01","0.00"
"11:59:57","59.2","30.2","33.3","30.10","324","5.8","12","0.01","0.00"
"12:04:57","59.3","31.8","35.3","30.09","319","4.4","13","0.01","0.00"
"12:09:57","59.8","33.1","36.5","30.09","310","5","13","0.01","0.00"
"12:14:57","59.9","31.6","34.3","30.09","293","4.6","11.5","0.01","0.00"
"12:19:59","60.1","34.5","38.3","30.09","315","3.2","8.1","0.01","0.00"
"12:24:58","60.5","32.6","34.9","30.09","353","2.9","10.4","0.01","0.00"
"12:29:57","60.6","32.9","35.3","30.09","352","4.9","12","0.01","0.00"
"12:34:56","60.7","33.8","36.3","30.08","320","2.7","10.4","0.01","0.00"
"12:39:56","61.4","34.6","36.8","30.08","282","2.3","6","0.01","0.00"
"12:44:59","61.6","33.8","35.3","30.08","313","3.8","9.2","0.01","0.00"
"12:49:58","61.7","32.5","33.5","30.08","329","4.2","12","0.01","0.00"
"12:54:56","61.4","32.8","34.1","30.08","304","4","14","0.01","0.00"
"12:59:59","61.8","32.5","33.3","30.08","298","3.6","9.2","0.01","0.00"
"13:04:58","61.6","32.8","33.8","30.07","280","3.3","11.5","0.01","0.00"
"13:09:58","61.9","32.8","33.6","30.07","268","4.3","11.5","0.01","0.00"
"13:14:59","62.5","36","37.3","30.07","264","4.6","10","0.01","0.00"
"13:19:57","62.9","33.9","33.8","30.07","263","4.2","13","0.01","0.00"
"13:24:59","62.6","32.8","32.8","30.07","235","5.2","11.5","0.01","0.00"
"13:29:59","62.9","34.3","34.4","30.07","301","3.2","9","0.01","0.00"
"13:34:57","62.8","31.9","31.3","30.06","290","4.6","9.2","0.01","0.00"
"13:39:58","62.8","30.4","29.5","30.06","270","4.2","11.5","0.01","0.00"
"13:44:57","62.8","32.7","32.5","30.06","239","4.3","13","0.01","0.00"
"13:49:59","63.2","30.9","29.7","30.05","299","4.2","12.7","0.01","0.00"
"13:54:58","63.4","33","32","30.05","290","2.8","7","0.01","0.00"
"13:59:56","63.7","34.8","34","30.05","227","5.4","11","0.01","0.00"
"14:04:59","64.1","34.2","32.9","30.05","266","3.8","10.4","0.01","0.00"
"14:09:59","64","34.1","32.8","30.05","242","3","8","0.01","0.00"
"14:14:56","64.3","34.1","32.4","30.05","268","4.6","11","0.01","0.00"
"14:19:58","64.3","33.6","31.7","30.04","282","4","11.5","0.01","0.00"
"14:24:56","64.4","31.6","29.3","30.04","230","3.8","11.5","0.01","0.00"
"14:29:59","64.6","35.1","33.5","30.04","253","5.8","12","0.01","0.00"
"14:34:57","65.2","33.5","30.6","30.04","236","4.9","12","0.01","0.00"
"14:39:57","65.5","36.2","33.8","30.04","232","5.6","13","0.01","0.00"
"14:44:56","65.6","35.7","33.1","30.04","238","4.7","9","0.01","0.00"
"14:49:58","66.1","35.1","31.8","30.04","237","5.2","9.2","0.01","0.00"
"14:54:57","66.5","36.8","33.5","30.04","248","4.8","10.4","0.01","0.00"
"14:59:59","66.5","34.3","30.4","30.04","229","4.8","14","0.01","0.00"
"15:04:59","66.4","33.4","29.4","30.04","238","6","15","0.01","0.00"
"15:09:59","66.4","35.5","31.9","30.04","241","5.3","11.5","0.01","0.00"
"15:14:59","66.9","36.5","32.7","30.04","223","4.1","10.4","0.01","0.00"
"15:19:57","67.5","36","31.3","30.03","258","5","12","0.01","0.00"
"15:24:56","67.7","36.7","32","30.03","235","3.6","8.1","0.01","0.00"
"15:29:58","67.8","35.1","30","30.03","217","3.5","10","0.01","0.00"
"15:34:56","67.5","30.7","25.3","30.02","292","6","14","0.01","0.00"
"15:39:56","67.2","31.6","26.5","30.02","319","3.7","7","0.01","0.00"
"15:44:59","67.5","31.1","25.9","30.02","330","3.9","8","0.01","0.00"
"15:49:57","67.4","31.4","26.2","30.01","320","3.6","7","0.01","0.00"
"15:54:59","67.7","31.2","25.7","30.01","322","4.5","11.5","0.01","0.00"
"15:59:58","67.7","31.3","25.8","30.01","293","5.6","12","0.01","0.00"
"16:04:57","67.6","30.8","25.5","29.99","306","3.2","12","0.01","0.00"
"16:09:57","67.9","32.5","27","29.99","301","4","11.5","0.01","0.00"
"16:14:57","68.3","32.4","26.4","29.99","332","4.5","11","0.01","0.00"
"16:19:59","68.8","32.6","26.1","29.98","336","3.7","11.5","0.01","0.00"
"16:24:58","69","33.1","26.5","29.98","320","3.8","11","0.01","0.00"
"16:29:56","69.4","34.1","27.2","29.98","289","4","10.4","0.01","0.00"
"16:34:58","69.7","32.8","25.7","29.98","303","2.7","9","0.01","0.00"
"16:39:59","69.6","31.5","24.2","29.98","229","4.5","10","0.01","0.00"
"16:44:57","69.3","32.6","25.7","29.98","232","4.3","9.2","0.01","0.00"
"16:49:55","69.6","34.8","27.9","29.98","259","2.5","6","0.01","0.00"
"16:54:58","69.9","32.9","25.5","29.98","231","3.8","7","0.01","0.00"
"16:59:56","69.8","35.7","28.6","29.98","224","2.8","6","0.01","0.00"
"17:04:56","70","34.4","27","29.97","222","3.3","5","0.01","0.00"
"17:09:57","70.1","36.1","28.8","29.97","218","3.9","7","0.01","0.00"
"17:14:57","69.9","35.3","28.1","29.97","206","2.7","5","0.01","0.00"
"17:19:56","69.6","34.5","27.5","29.96","243","3.7","7","0.01","0.00"
"17:24:59","69.3","33.2","26.4","29.96","194","3.2","6","0.01","0.00"
"17:29:57","69.3","34.3","27.5","29.96","220","2.7","5","0.01","0.00"
"17:34:56","69.6","34.5","27.4","29.96","216","3","7","0.01","0.00"
"17:39:56","69.8","32.9","25.6","29.96","254","2.2","7","0.01","0.00"
"17:44:58","69.9","33.7","26.4","29.96","268","2.5","5","0.01","0.00"
"17:49:59","70","31.9","24.4","29.96","290","2","5","0.01","0.00"
"17:54:57","70.2","33.3","25.7","29.96","293","2.5","5","0.01","0.00"
"17:59:56","70.2","33.2","25.5","29.96","254","2.6","7","0.01","0.00"
"18:04:56","70.1","33.4","25.9","29.95","229","2.9","7","0.01","0.00"
"18:09:56","69.9","31.6","24.2","29.95","243","2.7","6","0.01","0.00"
"18:14:57","70","33.1","25.6","29.95","221","1.9","5","0.01","0.00"
"18:19:59","70","33.8","26.3","29.95","223","1.7","3.5","0.01","0.00"
"18:24:58","70.1","34.7","27.2","29.95","199","1.8","4","0.01","0.00"
"18:29:56","70.1","32.2","24.6","29.95","205","2.7","5","0.01","0.00"
"18:34:59","69.7","33.3","26.1","29.95","190","2.9","6","0.01","0.00"
"18:39:59","69.1","32.5","25.8","29.95","181","2.6","5","0.01","0.00"
"18:44:58","68.6","32.3","26","29.95","174","2.3","5","0.01","0.00"
"18:49:56","68.2","33.6","27.8","29.94","160","1.6","5","0.01","0.00"
"18:54:58","67.8","32.3","26.7","29.94","183","1.8","4","0.01","0.00"
"18:59:56","67.4","31.5","26.2","29.94","171","1.3","3.5","0.01","0.00"
"19:04:56","67.2","31.5","26.4","29.94","139","1.2","3.5","0.01","0.00"
"19:09:56","67","30.8","25.9","29.94","152","2.2","5","0.01","0.00"
"19:14:57","66.7","31.4","26.8","29.94","181","2.2","5","0.01","0.00"
"19:19:56","66.4","31.8","27.5","29.94","186","2.9","6","0.01","0.00"
"19:24:58","66","32.4","28.5","29.94","187","2.8","4.6","0.01","0.00"
"19:29:56","65.7","32","28.3","29.94","166","2","4","0.01","0.00"
"19:34:59","65.5","32.2","28.8","29.94","156","1.2","4","0.01","0.00"
"19:39:59","65.1","32.3","29.3","29.94","192","1.9","4","0.01","0.00"
"19:44:57","64.7","32.4","29.9","29.94","194","1.8","4","0.01","0.00"
"19:49:56","64.4","32.2","29.8","29.94","174","2.4","4","0.01","0.00"
"19:54:56","64.2","32.4","30.4","29.94","152","1","3.5","0.01","0.00"
"19:59:59","64","31.9","30","29.94","152","1.3","4","0.01","0.00"
"20:04:59","63.7","31.9","30.2","29.93","153","0.8","3.5","0.01","0.00"
"20:09:59","63.4","32","30.9","29.93","152","1.2","3.5","0.01","0.00"
"20:14:57","63","32.6","32","29.93","152","0.7","2.3","0.01","0.00"
"20:19:56","62.5","32.8","32.8","29.92","152","0.6","2.3","0.01","0.00"
"20:24:59","61.9","33","33.8","29.92","152","0.5","2.3","0.01","0.00"
"20:29:59","61.4","33.6","35.2","29.92","151","0.6","2.3","0.01","0.00"
"20:34:57","61.1","32.9","34.7","29.92","169","1.7","4","0.01","0.00"
"20:39:58","60.9","33","35","29.92","207","1","3.5","0.01","0.00"
"20:44:57","60.7","33.1","35.4","29.92","207","1","3.5","0.01","0.00"
"20:49:56","60.4","34.2","37.3","29.92","207","0.8","3","0.01","0.00"
"20:54:59","60","34.2","37.8","29.92","207","0","1.2","0.01","0.00"
"20:59:58","59.6","37.3","43.5","29.93","207","0.3","2.3","0.01","0.00"
"21:04:58","59","37.4","44.6","29.93","207","0.7","2.3","0.01","0.00"
"21:09:56","58.3","36.8","44.6","29.93","207","0.5","2.3","0.01","0.00"
"21:14:57","57.7","35.3","43.1","29.93","207","0","1.2","0.01","0.00"
"21:19:56","57.2","34.8","42.8","29.93","207","0","0","0.01","0.00"
"21:24:59","56.7","35.6","44.9","29.93","207","0","0","0.01","0.00"
"21:29:59","56.1","38.5","51.7","29.94","207","0","0","0.01","0.00"
"21:34:58","55.4","40.1","56.2","29.94","207","0","0","0.01","0.00"
"21:39:58","54.8","39.6","56.6","29.94","207","0","0","0.01","0.00"
"21:44:57","54.2","39.3","57.2","29.95","207","0","0","0.01","0.00"
"21:49:57","53.7","38.6","56.6","29.95","207","0","1.2","0.01","0.00"
"21:54:56","53.3","36.4","52.8","29.95","207","0.5","2.3","0.01","0.00"
"21:59:56","53.3","36.8","53.5","29.95","207","0","1.2","0.01","0.00"
"22:04:57","53.4","35.5","50.6","29.94","207","0","0","0.01","0.00"
"22:09:58","53.7","36.4","51.8","29.94","207","0","0","0.01","0.00"
"22:14:56","53.6","38.2","55.8","29.95","207","0","0","0.01","0.00"
"22:19:56","53.3","38.5","57.1","29.95","207","0","0","0.01","0.00"
"22:24:59","52.8","40.1","62","29.95","207","0","0","0.01","0.00"
"22:29:56","52.2","40.2","63.7","29.95","207","0","0","0.01","0.00"
"22:34:59","51.7","39.2","62.2","29.95","207","0","0","0.01","0.00"
"22:39:56","51.6","38.5","60.9","29.95","207","0","0","0.01","0.00"
"22:44:56","51.5","38.5","60.9","29.95","207","0","0","0.01","0.00"
"22:49:59","51.5","38.5","61","29.94","207","0","0","0.01","0.00"
"22:54:58","51.7","38","59.4","29.94","206","0.2","2.3","0.01","0.00"
"22:59:56","52","38.2","59.5","29.94","206","0.6","2.3","0.01","0.00"
"23:04:57","52.2","38.4","59.3","29.94","207","0.1","2.3","0.01","0.00"
"23:09:58","52.3","38.8","60","29.94","206","0.4","2.3","0.01","0.00"
"23:14:58","52.6","37.4","56.3","29.94","202","0.3","2.3","0.01","0.00"
"23:19:57","53","37.9","56.2","29.93","202","0.5","2.3","0.01","0.00"
"23:24:56","53.3","37.8","55.7","29.93","192","1.3","4","0.01","0.00"
"23:29:58","53.4","37.7","55.2","29.93","176","1.8","5","0.01","0.00"
"23:34:57","53.5","37.5","54.6","29.91","178","2.7","7","0.01","0.00"
"23:39:57","53.8","37.3","53.5","29.91","181","2.7","7","0.01","0.00"
"23:44:56","54","37.2","52.8","29.91","170","2","6.9","0.01","0.00"
"23:49:59","54.3","36.7","51.4","29.90","184","2.3","5","0.01","0.00"
"23:54:58","54.6","36.8","51.2","29.90","192","2.4","5","0.01","0.00"
"23:59:56","54.6","37.2","51.7","29.91","189","2.6","6","0.01","0.00"
